KD8BMB Weather Reports


time (UTC)temp
C
wind
direction
speed
KPH
gust
KPH
rain 1hr
cm
rain 24hr
cm
rain mn
cm
humidity
%
barometer
mb
20260507043235 7 298 0.0 0.0 0.00 0.00 0.00 64 1012.6
20260507042731 7 299 0.0 0.0 0.00 0.00 0.00 64 1013.0
20260507042226 7 302 0.0 0.0 0.00 0.00 0.00 62 1012.7
20260507041724 7 303 0.0 0.0 0.00 0.00 0.00 62 1012.7
20260507041221 7 263 0.0 0.0 0.00 0.00 0.00 61 1013.0
20260507040718 7 349 0.0 0.0 0.00 0.00 0.00 62 1012.9
20260507040214 7 319 0.0 0.0 0.00 0.00 0.00 61 1012.7
20260507035710 8 4 0.0 0.0 0.00 0.00 0.00 59 1012.6
20260507035205 8 287 0.0 0.0 0.00 0.00 0.00 58 1012.9
20260507034702 8 256 0.0 0.0 0.00 0.00 0.00 58 1012.9
20260507034200 8 305 0.0 0.0 0.00 0.00 0.00 57 1013.0
20260507033658 8 284 1.6 1.6 0.00 0.00 0.00 57 1013.0
20260507033155 8 264 1.6 1.6 0.00 0.00 0.00 57 1013.0
20260507032653 8 308 1.6 1.6 0.00 0.00 0.00 57 1012.7
20260507032148 8 288 1.6 3.2 0.00 0.00 0.00 56 1012.5
20260507031645 8 285 1.6 1.6 0.00 0.00 0.00 58 1012.7
20260507031142 8 271 0.0 0.0 0.00 0.00 0.00 58 1012.7
20260507030639 8 300 0.0 0.0 0.00 0.00 0.00 57 1012.7
20260507030137 8 249 0.0 0.0 0.00 0.00 0.00 57 1012.6
20260507025633 8 285 0.0 0.0 0.00 0.00 0.00 57 1012.9
20260507025130 8 240 1.6 1.6 0.00 0.00 0.00 56 1012.6
20260507024628 8 270 3.2 3.2 0.00 0.00 0.00 55 1012.7
20260507024125 8 288 1.6 1.6 0.00 0.00 0.00 56 1012.7
20260507023621 8 283 0.0 0.0 0.00 0.00 0.00 55 1012.4
20260507023119 8 283 0.0 0.0 0.00 0.00 0.00 55 1012.6
20260507022615 8 278 1.6 1.6 0.00 0.00 0.00 54 1012.6
20260507022110 8 287 1.6 1.6 0.00 0.00 0.00 55 1012.5
20260507021607 9 257 1.6 1.6 0.00 0.00 0.00 54 1012.5
20260507021103 9 280 1.6 1.6 0.00 0.00 0.00 55 1012.2
20260507020602 9 297 0.0 0.0 0.00 0.00 0.00 54 1012.4
20260507020057 9 284 1.6 1.6 0.00 0.00 0.00 55 1012.2
20260507015555 9 238 3.2 3.2 0.00 0.00 0.00 55 1012.3
20260507015047 9 230 1.6 1.6 0.00 0.00 0.00 56 1012.3
20260507014543 9 281 0.0 1.6 0.00 0.00 0.00 57 1012.2
20260507014033 9 245 1.6 1.6 0.00 0.00 0.00 56 1012.1
20260507013530 9 227 1.6 1.6 0.00 0.00 0.00 57 1012.3
20260507013027 9 261 0.0 0.0 0.00 0.00 0.00 57 1012.1
20260507012524 9 278 0.0 0.0 0.00 0.00 0.00 57 1012.0
20260507012020 9 271 0.0 0.0 0.00 0.00 0.00 57 1012.0
20260507011518 9 266 0.0 0.0 0.00 0.00 0.00 57 1012.1
20260507011014 9 269 0.0 0.0 0.00 0.00 0.00 58 1012.0
20260507010509 9 269 0.0 0.0 0.00 0.00 0.00 58 1012.0
20260507010006 9 238 0.0 0.0 0.00 0.00 0.00 57 1011.9
20260507005503 10 281 0.0 0.0 0.00 0.00 0.00 57 1012.0
20260507004959 10 261 0.0 0.0 0.00 0.00 0.00 57 1011.8
20260507004456 10 244 0.0 0.0 0.00 0.00 0.00 55 1012.0
20260507003954 10 284 0.0 0.0 0.00 0.00 0.00 56 1011.9
20260507003448 10 276 0.0 0.0 0.00 0.00 0.00 55 1012.0
20260507002944 10 277 0.0 0.0 0.00 0.00 0.00 56 1012.0
20260507002441 10 311 0.0 0.0 0.00 0.00 0.00 55 1011.9
20260507001938 10 319 1.6 1.6 0.00 0.00 0.00 52 1011.9
20260507001434 10 317 0.0 0.0 0.00 0.00 0.00 52 1011.9
20260507000932 10 305 0.0 0.0 0.00 0.00 0.00 53 1011.8
20260507000427 10 309 0.0 0.0 0.00 0.00 0.00 52 1011.6
20260506235923 10 292 4.8 8.0 0.00 0.00 0.00 51 1011.8
20260506235420 10 222 1.6 1.6 0.00 0.00 0.00 51 1011.7
20260506234910 10 277 0.0 0.0 0.00 0.00 0.00 51 1011.8
20260506234409 10 263 0.0 0.0 0.00 0.00 0.00 51 1011.5
20260506233906 10 242 3.2 3.2 0.00 0.00 0.00 51 1011.7
20260506233401 10 221 4.8 4.8 0.00 0.00 0.00 50 1011.7
20260506232859 10 206 6.4 8.0 0.00 0.00 0.00 48 1011.8
20260506232354 10 207 4.8 4.8 0.00 0.00 0.00 49 1011.9
20260506231851 10 320 3.2 4.8 0.00 0.00 0.00 50 1011.6
20260506231349 10 288 4.8 8.0 0.00 0.00 0.00 50 1011.6
20260506230846 10 226 3.2 3.2 0.00 0.00 0.00 49 1011.7
20260506230342 10 253 3.2 4.8 0.00 0.00 0.00 50 1011.9
20260506225838 10 222 3.2 3.2 0.00 0.00 0.00 50 1011.7
20260506225336 11 237 4.8 8.0 0.00 0.00 0.00 50 1011.6
20260506224833 11 203 1.6 1.6 0.00 0.00 0.00 51 1011.7
20260506224330 11 245 1.6 1.6 0.00 0.00 0.00 49 1011.8
20260506223826 11 235 4.8 4.8 0.00 0.00 0.00 49 1011.8
20260506223321 11 216 1.6 3.2 0.00 0.00 0.00 51 1012.0
20260506222819 11 214 8.0 9.7 0.00 0.00 0.00 49 1012.0
20260506222313 11 205 8.0 9.7 0.00 0.00 0.00 49 1012.2
20260506221807 11 281 3.2 8.0 0.00 0.00 0.00 50 1012.1
20260506221304 11 218 4.8 8.0 0.00 0.00 0.00 49 1012.1
20260506220802 11 286 0.0 1.6 0.00 0.00 0.00 49 1012.0
20260506220256 11 217 3.2 3.2 0.00 0.00 0.00 49 1012.0
20260506215753 11 291 12.9 16.1 0.00 0.00 0.00 48 1011.8
20260506215249 11 283 1.6 3.2 0.00 0.00 0.00 49 1012.0
20260506214745 11 232 1.6 4.8 0.00 0.00 0.00 49 1012.0
20260506214242 11 218 4.8 4.8 0.00 0.00 0.00 49 1012.0
20260506213741 11 294 4.8 8.0 0.00 0.00 0.00 49 1011.9
20260506213237 11 283 4.8 9.7 0.00 0.00 0.00 49 1011.9
20260506212735 11 289 4.8 9.7 0.00 0.00 0.00 48 1011.8
20260506212231 11 312 1.6 3.2 0.00 0.00 0.00 49 1012.1
20260506211725 11 273 0.0 1.6 0.00 0.00 0.00 50 1011.9
20260506211222 11 241 6.4 8.0 0.00 0.00 0.00 49 1012.0
20260506210719 11 236 4.8 4.8 0.00 0.00 0.00 48 1011.7
20260506210216 11 246 3.2 3.2 0.00 0.00 0.00 48 1011.9
20260506205713 11 312 4.8 4.8 0.00 0.00 0.00 49 1012.0
20260506205208 11 241 1.6 3.2 0.00 0.00 0.00 49 1011.9
20260506204706 11 231 1.6 8.0 0.00 0.00 0.00 48 1011.9
20260506204203 11 298 3.2 3.2 0.00 0.00 0.00 48 1011.9
20260506203701 11 283 4.8 8.0 0.00 0.00 0.00 47 1011.9
20260506203158 11 208 1.6 3.2 0.00 0.00 0.00 47 1012.1
20260506202656 11 234 0.0 0.0 0.00 0.00 0.00 47 1012.1
20260506202151 11 234 1.6 1.6 0.00 0.00 0.00 49 1012.0
20260506201649 11 206 6.4 8.0 0.00 0.00 0.00 48 1012.1
20260506201145 11 240 1.6 1.6 0.00 0.00 0.00 48 1012.2
20260506200642 11 311 4.8 4.8 0.00 0.00 0.00 48 1012.1
20260506200138 11 246 0.0 1.6 0.00 0.00 0.00 49 1012.3
20260506195635 11 246 4.8 8.0 0.00 0.00 0.00 49 1012.4
20260506195131 11 330 3.2 3.2 0.00 0.00 0.00 48 1012.0
20260506194629 11 271 1.6 1.6 0.00 0.00 0.00 49 1012.2
20260506194125 11 321 8.0 9.7 0.00 0.00 0.00 47 1012.4
20260506193623 10 278 1.6 4.8 0.00 0.00 0.00 48 1012.4
20260506193120 10 249 0.0 0.0 0.00 0.00 0.00 48 1012.5
20260506192617 10 327 6.4 8.0 0.00 0.00 0.00 50 1012.6
20260506192113 10 356 4.8 4.8 0.00 0.00 0.00 50 1012.5
20260506191609 10 323 4.8 8.0 0.00 0.00 0.00 50 1012.3
20260506191105 11 355 8.0 9.7 0.00 0.00 0.00 47 1012.6
20260506190603 11 294 6.4 8.0 0.00 0.00 0.00 48 1012.6
20260506190100 10 288 9.7 14.5 0.00 0.00 0.00 49 1012.6
20260506185557 10 286 4.8 8.0 0.00 0.00 0.00 49 1012.6
20260506185053 10 244 1.6 1.6 0.00 0.00 0.00 50 1012.5
20260506184551 10 290 6.4 8.0 0.00 0.00 0.00 49 1012.5
20260506184048 10 256 4.8 4.8 0.00 0.00 0.00 49 1012.6
20260506183544 11 332 6.4 14.5 0.00 0.00 0.00 47 1012.9
20260506183040 11 284 0.0 1.6 0.00 0.00 0.00 46 1012.7
20260506182538 11 228 4.8 9.7 0.00 0.00 0.00 48 1012.9
20260506182035 10 237 0.0 0.0 0.00 0.00 0.00 49 1012.7
20260506181533 10 241 8.0 11.3 0.00 0.00 0.00 49 1012.9
20260506181029 10 312 3.2 3.2 0.00 0.00 0.00 49 1012.9
20260506180526 10 228 8.0 12.9 0.00 0.00 0.00 49 1012.7
20260506180023 10 341 4.8 8.0 0.00 0.00 0.00 49 1013.0
20260506175519 10 316 0.0 0.0 0.00 0.00 0.00 52 1012.9
20260506175016 10 300 0.0 0.0 0.00 0.00 0.00 50 1012.7
20260506174515 10 326 3.2 4.8 0.00 0.00 0.00 49 1013.0
20260506174010 10 56 0.0 1.6 0.00 0.00 0.00 52 1013.4
20260506173508 10 357 0.0 0.0 0.00 0.00 0.00 53 1013.2
20260506173005 9 25 1.6 3.2 0.00 0.00 0.00 54 1013.2
20260506172502 9 2 4.8 9.7 0.00 0.00 0.00 53 1013.3
20260506171958 10 1 1.6 3.2 0.00 0.00 0.00 53 1012.9
20260506171455 10 24 0.0 0.0 0.00 0.00 0.00 53 1013.1
20260506170953 10 309 0.0 0.0 0.00 0.00 0.00 54 1013.0
20260506170449 11 10 8.0 12.9 0.00 0.00 0.00 54 1013.2
20260506165942 10 319 0.0 0.0 0.00 0.00 0.00 53 1013.0
20260506165441 10 302 9.7 12.9 0.00 0.00 0.00 54 1013.0
20260506164936 10 43 6.4 8.0 0.00 0.00 0.00 54 1013.2
20260506164433 9 278 1.6 3.2 0.00 0.00 0.00 58 1013.1
20260506163931 9 74 0.0 0.0 0.00 0.00 0.00 58 1013.1
20260506163425 10 47 0.0 1.6 0.00 0.00 0.00 55 1013.3
20260506162915 11 124 0.0 0.0 0.00 0.00 0.00 54 1013.5
20260506162413 10 234 0.0 1.6 0.00 0.00 0.00 57 1013.5
20260506161910 8 46 1.6 1.6 0.00 0.00 0.00 61 1013.6
20260506161408 8 304 0.0 0.0 0.00 0.00 0.00 60 1013.3
20260506160900 10 115 0.0 3.2 0.00 0.00 0.00 58 1013.4
20260506160356 9 298 0.0 1.6 0.00 0.00 0.00 61 1013.5
20260506155854 8 4 1.6 3.2 0.00 0.00 0.00 65 1013.5
20260506155351 8 36 8.0 11.3 0.00 0.00 0.00 63 1013.5
20260506153508 8 111 1.6 3.2 0.00 0.00 0.00 62 1013.3
20260506153006 8 311 4.8 8.0 0.00 0.00 0.00 63 1013.4
20260506152502 8 58 8.0 11.3 0.00 0.00 0.00 64 1013.2
20260506152001 8 344 6.4 9.7 0.00 0.00 0.00 63 1013.2
20260506151458 8 233 0.0 0.0 0.00 0.00 0.00 63 1013.1
20260506150955 7 342 1.6 3.2 0.00 0.00 0.00 64 1013.1
20260506150451 7 334 6.4 8.0 0.00 0.00 0.00 67 1013.1
20260506145948 7 11 4.8 8.0 0.00 0.00 0.00 67 1013.2
20260506145444 7 351 1.6 1.6 0.00 0.00 0.00 67 1013.1
20260506144942 8 278 4.8 4.8 0.00 0.00 0.00 66 1013.2
20260506144438 7 49 4.8 9.7 0.00 0.00 0.00 67 1013.0
20260506143937 7 40 3.2 3.2 0.00 0.00 0.00 67 1013.2
20260506143433 7 33 6.4 8.0 0.00 0.00 0.00 66 1012.7
20260506142932 7 356 1.6 3.2 0.00 0.00 0.00 65 1013.0
20260506142430 8 13 1.6 3.2 0.00 0.00 0.00 65 1012.9
20260506141927 8 68 0.0 1.6 0.00 0.00 0.00 67 1012.5
20260506141425 8 68 1.6 3.2 0.00 0.00 0.00 67 1012.9
20260506140923 7 76 1.6 1.6 0.00 0.00 0.00 69 1012.5
20260506140420 7 46 4.8 8.0 0.00 0.00 0.00 68 1012.7
20260506135917 6 61 6.4 9.7 0.00 0.00 0.00 71 1012.9
20260506135414 7 64 0.0 1.6 0.00 0.00 0.00 71 1012.4
20260506134910 7 34 3.2 3.2 0.00 0.00 0.00 70 1012.6
20260506134406 7 358 3.2 4.8 0.00 0.00 0.00 71 1012.7
20260506133903 6 52 1.6 3.2 0.00 0.00 0.00 72 1012.5
20260506133400 6 88 4.8 8.0 0.00 0.00 0.00 73 1012.3
20260506132857 6 34 3.2 4.8 0.00 0.00 0.00 74 1012.2
20260506132354 6 349 0.0 1.6 0.00 0.00 0.00 74 1012.4
20260506131852 6 340 6.4 9.7 0.00 0.00 0.00 75 1012.3
20260506131348 6 30 1.6 3.2 0.00 0.00 0.00 75 1012.3
20260506130845 6 57 3.2 3.2 0.00 0.00 0.00 75 1012.2
20260506130341 5 341 1.6 4.8 0.00 0.00 0.00 76 1012.3
20260506125840 6 66 0.0 1.6 0.00 0.00 0.00 75 1012.1
20260506125338 6 54 0.0 0.0 0.00 0.00 0.00 74 1012.2
20260506124836 5 24 3.2 3.2 0.00 0.00 0.00 74 1012.0
20260506124332 6 4 1.6 3.2 0.00 0.00 0.00 73 1012.3
20260506123830 5 11 1.6 1.6 0.00 0.00 0.00 73 1012.2
20260506123328 5 57 1.6 3.2 0.00 0.00 0.00 74 1012.1
20260506122825 5 72 4.8 8.0 0.00 0.00 0.00 75 1011.9
20260506122322 5 353 0.0 0.0 0.00 0.00 0.00 77 1011.8
20260506121820 4 47 3.2 3.2 0.00 0.00 0.00 78 1011.8
20260506121317 4 70 1.6 1.6 0.00 0.00 0.00 77 1011.5
20260506120814 4 77 1.6 3.2 0.00 0.00 0.00 78 1011.7
20260506120312 4 61 0.0 1.6 0.00 0.00 0.00 79 1011.5
20260506115809 3 45 1.6 1.6 0.00 0.00 0.00 80 1011.7
20260506115307 3 65 6.4 11.3 0.00 0.00 0.00 80 1011.5
20260506114805 3 65 3.2 3.2 0.00 0.00 0.00 84 1011.5
20260506114303 3 295 4.8 8.0 0.00 0.00 0.00 84 1011.4
20260506113801 3 355 3.2 3.2 0.00 0.00 0.00 85 1011.5
20260506113258 3 109 1.6 3.2 0.00 0.00 0.00 85 1011.5
20260506112754 3 9 8.0 9.7 0.00 0.00 0.00 86 1011.3
20260506112252 3 17 3.2 3.2 0.00 0.00 0.00 86 1011.4
20260506111749 3 0 3.2 4.8 0.00 0.00 0.00 87 1011.3
20260506111247 3 11 3.2 3.2 0.00 0.00 0.00 88 1011.1
20260506110744 2 74 0.0 1.6 0.00 0.00 0.00 90 1010.7
20260506110242 2 16 3.2 4.8 0.00 0.00 0.00 91 1011.1
20260506105738 2 25 4.8 4.8 0.00 0.00 0.00 92 1010.8
20260506105235 2 325 0.0 0.0 0.00 0.00 0.00 92 1010.8
20260506104732 2 323 0.0 0.0 0.00 0.00 0.00 92 1010.8
20260506104230 2 320 0.0 0.0 0.00 0.00 0.00 91 1010.7
20260506103727 2 325 0.0 0.0 0.00 0.00 0.00 90 1010.4
20260506103224 2 329 0.0 0.0 0.00 0.00 0.00 89 1010.4
20260506102722 2 315 0.0 0.0 0.00 0.00 0.00 89 1010.2
20260506102220 2 311 0.0 0.0 0.00 0.00 0.00 88 1010.2
20260506101716 2 274 0.0 0.0 0.00 0.00 0.00 87 1009.9
20260506101213 3 348 0.0 0.0 0.00 0.00 0.00 86 1010.0
20260506100711 3 339 0.0 0.0 0.00 0.00 0.00 86 1009.8
20260506100209 3 5 1.6 3.2 0.00 0.00 0.00 85 1009.6
20260506095707 3 324 0.0 0.0 0.00 0.00 0.00 85 1010.0
20260506095204 3 328 0.0 0.0 0.00 0.00 0.00 84 1009.5
20260506094701 3 349 0.0 0.0 0.00 0.00 0.00 83 1009.3
20260506094158 3 7 0.0 0.0 0.00 0.00 0.00 83 1009.5
20260506093657 3 42 0.0 0.0 0.00 0.00 0.00 83 1009.5
20260506093154 4 39 1.6 1.6 0.00 0.00 0.00 83 1009.3
20260506092651 4 14 0.0 0.0 0.00 0.00 0.00 82 1009.7
20260506092149 4 53 0.0 1.6 0.00 0.00 0.00 83 1009.6
20260506091647 4 32 1.6 1.6 0.00 0.00 0.00 82 1009.5
20260506091144 4 13 0.0 0.0 0.00 0.00 0.00 82 1009.4
20260506090642 4 8 0.0 0.0 0.00 0.00 0.00 83 1009.3
20260506090138 4 33 1.6 3.2 0.00 0.00 0.00 83 1009.4
20260506085635 5 52 1.6 1.6 0.00 0.00 0.00 84 1009.5
20260506085131 5 19 1.6 1.6 0.00 0.00 0.00 86 1009.5
20260506084628 5 330 0.0 0.0 0.00 0.00 0.00 86 1009.5
20260506084124 5 343 0.0 0.0 0.00 0.00 0.00 87 1009.5
20260506083621 5 350 1.6 1.6 0.00 0.00 0.00 88 1009.5
20260506083119 5 5 3.2 3.2 0.00 0.00 0.00 91 1009.6
20260506082616 5 306 0.0 0.0 0.00 0.00 0.00 92 1009.6
20260506082111 5 21 0.0 1.6 0.00 0.00 0.00 93 1009.3
20260506081610 5 15 1.6 1.6 0.00 0.00 0.00 93 1009.5
20260506081107 5 324 0.0 0.0 0.00 0.00 0.00 94 1009.7
20260506080605 5 316 0.0 0.0 0.00 0.00 0.00 93 1009.6
20260506073044 6 325 0.0 0.0 0.00 0.00 0.00 91 1009.0
20260506072542 6 311 0.0 0.0 0.00 0.00 0.00 91 1009.2
20260506072039 6 313 0.0 0.0 0.00 0.00 0.00 91 1009.0
20260506071537 6 320 0.0 0.0 0.00 0.00 0.00 90 1009.3
20260506071034 6 311 1.6 1.6 0.00 0.00 0.00 90 1009.1
20260506070531 6 300 0.0 1.6 0.00 0.00 0.00 90 1008.9
20260506062509 7 324 0.0 0.0 0.00 0.00 0.00 86 1009.0
20260506062005 7 3 0.0 0.0 0.00 0.00 0.00 85 1009.1
20260506061501 7 309 0.0 0.0 0.00 0.00 0.00 85 1009.1
20260506060959 7 298 0.0 0.0 0.00 0.00 0.00 84 1009.3
20260506060457 7 308 0.0 0.0 0.00 0.00 0.00 84 1009.2
20260506050926 7 290 3.2 3.2 0.00 0.00 0.00 70 1008.8
20260506050424 8 302 0.0 0.0 0.00 0.00 0.00 67 1009.0
20260506044914 8 310 1.6 1.6 0.00 0.00 0.00 65 1009.1
20260506044412 8 299 0.0 0.0 0.00 0.00 0.00 64 1008.8
20260506043909 8 281 0.0 0.0 0.00 0.00 0.00 65 1008.5
20260506043406 8 326 1.6 1.6 0.00 0.00 0.00 64 1008.6